Home   Weather   Brumunddal   Past weeks

Flag for Norway Past Weather in Brumunddal, Norway — Yesterday and Last 2 Weeks

Now
53 °F

Cool.


Feels Like: 53 °F
Forecast: 54 / 65 °F
Wind: No wind

Location: Lillehammer-Saetherengen

Current Time: Aug 17, 2017 at 11:59:18 am

Latest Report: Aug 17, 2017 at 11:00 am


Visibility: N/A

Pressure: 30.02 "Hg

Humidity: 86%

Dew Point: 49 °F

Location of BrumunddalLocation

Past Weather in Brumunddal — Graph

°F

Brumunddal Temperature Yesterday

Maximum temperature yesterday: 70 °F (at 3:00 pm)
Minimum temperature yesterday: 53 °F (at 12:00 am)
Average temperature yesterday: 60 °F

High & Low Weather Summary for the Past Weeks

 TemperatureHumidityPressure
High72 °F (Aug 11, 6:00 pm)96% (Aug 8, 2:00 am)30.13 "Hg (Aug 8, 2:00 am)
Low41 °F (Aug 14, 6:00 am)30% (Aug 13, 5:00 pm)29.32 "Hg (Aug 4, 3:00 pm)
Average57 °F78%29.80 "Hg
* Reported Aug 2 10:00 am — Aug 17 10:00 am, Brumunddal. Weather by CustomWeather, © 2017

Note: Actual official high and low records may vary slightly from our data, if they occured in-between our weather recording intervals... More about our weather records

Advertising

Brumunddal Weather History for the Previous 24 Hours

Scroll right to see more
 ConditionsComfort  
Time TempWeatherWind HumidityBarometerVisibility
10:00 am
Thu, Aug 17
50 °FCool.1 mph91%30.03 "HgN/A
9:00 am48 °FCool.1 mph92%30.02 "HgN/A
8:00 am49 °FCool.1 mph93%30.03 "HgN/A
7:00 am46 °FCool.1 mph93%30.04 "HgN/A
6:00 am44 °FQuite cool.1 mph93%30.03 "HgN/A
5:00 am44 °FQuite cool.1 mph92%30.03 "HgN/A
4:00 am46 °FCool.1 mph92%30.03 "HgN/A
3:00 am46 °FCool.1 mph90%30.03 "HgN/A
2:00 am47 °FCool.1 mph87%30.03 "HgN/A
1:00 am49 °FCool.1 mph84%30.01 "HgN/A
12:00 am50 °FCool.1 mph81%30.01 "HgN/A
11:00 pm
Wed, Aug 16
53 °FCool.1 mph78%29.99 "HgN/A
10:00 pm54 °FCool.1 mph75%29.98 "HgN/A
9:00 pm59 °FCool.1 mph64%29.96 "HgN/A
8:00 pm66 °FMild.1 mph45%29.93 "HgN/A
7:00 pm69 °FMild.3 mph33%29.92 "HgN/A
6:00 pm70 °FMild.3 mph36%29.90 "HgN/A
5:00 pm69 °FMild.2 mph35%29.90 "HgN/A
4:00 pm67 °FMild.1 mph45%29.90 "HgN/A
3:00 pm70 °FMild.2 mph35%29.89 "HgN/A
2:00 pm67 °FMild.3 mph42%29.89 "HgN/A
1:00 pm65 °FMild.1 mph65%29.88 "HgN/A
12:00 pm62 °FCool.1 mph79%29.88 "HgN/A
11:00 am60 °FCool.1 mph88%29.88 "HgN/A
Weather by CustomWeather, © 2017

See weather overviewHow to use our weather pages